Visibility
15.0 15.0 15.0 15.0 15.0 15.0 15.0 15.0 15.0 15.0 15.0 15.0 15.0 15.0 15.0 15.0 15.0 15.0 15.0 15.0 15.0 15.0 15.0 15.0 15.0 15.0 8.6 15.0 15.0 15.0 15.0 15.0 15.0 15.0 15.0 15.0 15.0 15.0 15.0 15.0 15.0 15.0 15.0 15.0 15.0 15.0 15.0
15.0 15.0 15.0 15.0 15.0 15.0 15.0 15.0 15.0 15.0 15.0 15.0 15.0 15.0 15.0 15.0 15.0 15.0 15.0 15.0 15.0 15.0 15.0 15.0 15.0 15.0 15.0 15.0 15.0 15.0 15.0 15.0 15.0 15.0 15.0 15.0 15.0 15.0 15.0 15.0 15.0 15.0 15.0 15.0 15.0 15.0 15.0
15.0 15.0 15.0 15.0 15.0 15.0 15.0 15.0 15.0 15.0 15.0 15.0 15.0 15.0 15.0 15.0 15.0 15.0 15.0 15.0 15.0 15.0 15.0 15.0 15.0 15.0 15.0 15.0 15.0 15.0 15.0 15.0 15.0 15.0 15.0 15.0 15.0 15.0 15.0 15.0 15.0 15.0 15.0 15.0 15.0 15.0 15.0
14.7 15.0 15.0 15.0 15.0 15.0 15.0 15.0 15.0 15.0 15.0 15.0 15.0 15.0 15.0 15.0 15.0 15.0 15.0 15.0 15.0 15.0 15.0 15.0 15.0 15.0 15.0 15.0 15.0 15.0 15.0 15.0 15.0 15.0 15.0 15.0 15.0 15.0 15.0 15.0 15.0 15.0 15.0 15.0 15.0 15.0 15.0
15.0 8.1 6.0 4.7 10.8 14.4 15.0 15.0 7.9 2.9 15.0 15.0 15.0 15.0 15.0 15.0 15.0 15.0 15.0 15.0 15.0 15.0 15.0 15.0 15.0 11.7 8.4 15.0 15.0 15.0 15.0 15.0 15.0 15.0 15.0 15.0 15.0 15.0 15.0 15.0 15.0 15.0 15.0 15.0 15.0 15.0 15.0
15.0 15.0 15.0 12.0 4.0 4.4 10.7 3.7 9.0 15.0 15.0 15.0 15.0 15.0 15.0 15.0 15.0 15.0 15.0 15.0 15.0 15.0 6.0 15.0 15.0 12.7 15.0 15.0 15.0 15.0 15.0 15.0 15.0 15.0 15.0 15.0 15.0 15.0 15.0 15.0 15.0 15.0 15.0 15.0 15.0 15.0 15.0
12.0 13.2 15.0 15.0 13.2 5.9 5.8 15.0 9.4 15.0 15.0 15.0 15.0 15.0 15.0 15.0 15.0 15.0 15.0 15.0 15.0 15.0 15.0 15.0 15.0 15.0 15.0 15.0 15.0 15.0 15.0 15.0 15.0 15.0 15.0 15.0 15.0 15.0 15.0 15.0 15.0 15.0 15.0 15.0 15.0 15.0 15.0
12.4 11.8 15.0 15.0 15.0 9.7 7.1 13.0 14.5 15.0 15.0 15.0 15.0 15.0 15.0 15.0 15.0 15.0 15.0 15.0 15.0 5.1 0.2 15.0 15.0 15.0 15.0 15.0 15.0 15.0 15.0 15.0 15.0 15.0 15.0 15.0 15.0 15.0 15.0 15.0 15.0 15.0 15.0 15.0 15.0 15.0 15.0
7.4 6.0 11.6 7.8 7.3 12.0 14.8 15.0 15.0 15.0 15.0 15.0 15.0 15.0 15.0 15.0 15.0 15.0 15.0 15.0 15.0 15.0 0.1 7.9 15.0 15.0 15.0 15.0 15.0 15.0 15.0 15.0 15.0 15.0 15.0 15.0 15.0 15.0 15.0 15.0 15.0 15.0 15.0 15.0 15.0 15.0 15.0
15.0 14.3 12.8 5.5 6.4 5.6 6.5 7.5 9.1 10.7 7.1 8.5 15.0 14.1 15.0 15.0 15.0 15.0 15.0 15.0 15.0 15.0 3.3 15.0 15.0 15.0 15.0 15.0 15.0 15.0 15.0 15.0 15.0 15.0 15.0 15.0 15.0 15.0 15.0 15.0 15.0 15.0 15.0 15.0 15.0 15.0 15.0
15.0 12.6 12.1 8.3 6.3 6.9 7.7 14.5 15.0 9.4 7.1 12.1 14.1 14.7 15.0 15.0 15.0 15.0 15.0 15.0 15.0 15.0 0.2 15.0 15.0 15.0 15.0 15.0 15.0 15.0 15.0 15.0 15.0 15.0 15.0 15.0 15.0 15.0 15.0 15.0 15.0 15.0 15.0 15.0 15.0 15.0 15.0
13.3 11.6 7.4 12.3 11.1 9.3 9.5 6.7 15.0 15.0 15.0 15.0 15.0 15.0 15.0 15.0 15.0 15.0 15.0 15.0 14.4 4.2 0.4 15.0 15.0 15.0 15.0 15.0 15.0 15.0 15.0 15.0 15.0 15.0 15.0 15.0 15.0 15.0 15.0 15.0 15.0 15.0 15.0 15.0 15.0 15.0 15.0
14.9 14.8 14.8 15.0 15.0 15.0 15.0 9.7 15.0 15.0 15.0 15.0 15.0 15.0 15.0 15.0 15.0 15.0 15.0 15.0 0.2 0.1 15.0 15.0 15.0 15.0 15.0 15.0 15.0 15.0 15.0 15.0 15.0 15.0 15.0 15.0 15.0 15.0 15.0 15.0 15.0 15.0 15.0 15.0 15.0 15.0 15.0
15.0 15.0 15.0 15.0 15.0 15.0 15.0 15.0 15.0 14.4 15.0 15.0 13.1 15.0 15.0 15.0 15.0 15.0 7.1 1.5 0.0 15.0 15.0 15.0 15.0 15.0 15.0 15.0 15.0 15.0 15.0 15.0 15.0 15.0 15.0 15.0 15.0 15.0 15.0 15.0 15.0 15.0 15.0 15.0 15.0 15.0 15.0
15.0 15.0 15.0 15.0 15.0 15.0 15.0 15.0 15.0 15.0 15.0 10.7 8.7 14.1 15.0 15.0 15.0 15.0 4.1 0.0 10.3 15.0 15.0 15.0 15.0 15.0 15.0 15.0 15.0 15.0 15.0 15.0 15.0 15.0 15.0 15.0 15.0 15.0 15.0 15.0 15.0 15.0 15.0 15.0 15.0 15.0 14.3
15.0 15.0 15.0 15.0 15.0 15.0 15.0 15.0 15.0 13.1 13.7 7.6 14.6 9.9 15.0 15.0 15.0 15.0 4.2 6.6 14.7 15.0 15.0 15.0 15.0 15.0 15.0 15.0 15.0 15.0 15.0 15.0 15.0 15.0 15.0 15.0 15.0 15.0 15.0 15.0 15.0 15.0 15.0 15.0 15.0 15.0 14.1
15.0 15.0 15.0 15.0 15.0 15.0 15.0 15.0 15.0 15.0 13.2 7.4 10.4 0.3 15.0 15.0 15.0 10.3 0.1 15.0 15.0 15.0 15.0 15.0 15.0 15.0 15.0 15.0 15.0 15.0 15.0 15.0 15.0 15.0 15.0 15.0 15.0 15.0 15.0 15.0 15.0 15.0 15.0 15.0 15.0 15.0 15.0
15.0 15.0 15.0 15.0 15.0 15.0 15.0 15.0 15.0 15.0 7.5 10.5 4.5 0.0 15.0 15.0 0.0 0.0 14.4 15.0 15.0 15.0 15.0 15.0 15.0 15.0 15.0 15.0 15.0 15.0 15.0 15.0 15.0 15.0 15.0 15.0 15.0 15.0 15.0 15.0 15.0 15.0 15.0 15.0 15.0 15.0 15.0
15.0 15.0 15.0 15.0 15.0 15.0 15.0 15.0 15.0 15.0 6.7 1.3 0.1 5.0 14.4 6.7 0.1 0.1 15.0 15.0 15.0 15.0 15.0 15.0 15.0 15.0 15.0 15.0 15.0 15.0 15.0 15.0 15.0 15.0 11.4 15.0 11.9 14.5 15.0 15.0 15.0 15.0 15.0 15.0 15.0 15.0 15.0
15.0 15.0 15.0 15.0 15.0 15.0 15.0 15.0 15.0 15.0 14.2 2.5 0.2 0.0 0.1 0.1 11.8 15.0 15.0 15.0 15.0 15.0 15.0 15.0 15.0 15.0 15.0 15.0 15.0 7.8 15.0 15.0 15.0 15.0 15.0 8.2 0.0 0.3 5.2 15.0 15.0 15.0 15.0 15.0 15.0 11.3 15.0
15.0 15.0 15.0 15.0 15.0 15.0 15.0 15.0 15.0 15.0 15.0 0.1 0.1 0.0 0.1 0.0 0.0 0.3 15.0 15.0 15.0 15.0 15.0 15.0 8.0 15.0 15.0 4.2 15.0 15.0 15.0 15.0 15.0 15.0 15.0 1.1 0.0 0.0 4.6 15.0 15.0 15.0 15.0 15.0 15.0 13.4 15.0
15.0 15.0 15.0 15.0 15.0 15.0 15.0 15.0 15.0 15.0 14.9 0.7 0.0 0.0 0.0 0.1 14.7 0.0 0.0 0.1 15.0 15.0 15.0 15.0 15.0 15.0 13.7 5.0 12.5 14.9 15.0 15.0 15.0 15.0 15.0 15.0 1.0 15.0 14.9 15.0 15.0 15.0 15.0 15.0 15.0 15.0 15.0
9.0 11.1 11.9 15.0 15.0 15.0 15.0 15.0 15.0 15.0 15.0 15.0 15.0 12.5 0.1 0.0 0.0 0.0 0.1 15.0 15.0 15.0 9.0 15.0 15.0 11.2 15.0 15.0 15.0 15.0 15.0 15.0 15.0 15.0 15.0 0.2 0.1 9.7 1.6 15.0 15.0 0.1 3.0 15.0 15.0 15.0 15.0
13.0 8.8 13.2 12.8 15.0 15.0 15.0 15.0 15.0 15.0 15.0 15.0 14.9 10.7 0.0 0.0 0.1 0.1 15.0 15.0 15.0 15.0 2.6 15.0 14.7 15.0 15.0 15.0 13.1 15.0 7.5 15.0 15.0 15.0 15.0 8.6 8.3 1.7 0.4 2.6 0.0 14.4 15.0 15.0 15.0 15.0 15.0
15.0 14.1 6.1 14.6 15.0 15.0 15.0 15.0 15.0 15.0 15.0 15.0 15.0 15.0 0.0 0.0 1.4 8.5 15.0 13.2 13.1 0.5 0.1 12.4 15.0 15.0 15.0 15.0 0.4 0.0 2.7 8.7 15.0 15.0 15.0 14.9 3.2 0.1 0.1 0.1 2.8 15.0 15.0 15.0 15.0 15.0 15.0
8.2 11.0 15.0 4.7 5.4 14.2 15.0 15.0 15.0 15.0 15.0 15.0 15.0 15.0 15.0 0.4 5.8 15.0 0.0 0.0 5.1 10.5 12.1 15.0 15.0 15.0 15.0 1.7 0.0 0.5 0.3 11.5 8.7 15.0 15.0 15.0 3.9 0.1 0.1 0.1 1.1 15.0 15.0 15.0 15.0 15.0 15.0
12.8 13.6 13.9 13.3 14.2 15.0 15.0 15.0 15.0 15.0 14.8 14.5 15.0 15.0 15.0 1.9 15.0 15.0 15.0 0.1 9.7 0.1 0.1 14.4 14.3 1.8 11.8 0.0 0.1 0.4 14.5 15.0 0.2 15.0 13.0 7.4 0.0 0.0 0.1 0.1 8.2 15.0 15.0 15.0 15.0 15.0 15.0
15.0 11.1 12.7 11.8 13.0 14.2 15.0 15.0 15.0 15.0 15.0 14.9 15.0 15.0 11.5 14.7 15.0 15.0 15.0 15.0 15.0 0.1 0.0 0.6 4.2 2.4 0.1 0.0 0.2 7.6 0.4 11.3 10.6 15.0 15.0 15.0 7.2 0.7 0.1 0.1 0.1 15.0 15.0 15.0 15.0 15.0 15.0
14.1 7.0 6.7 6.3 9.5 13.8 12.5 14.7 15.0 15.0 15.0 8.4 14.4 15.0 11.4 0.9 15.0 15.0 15.0 15.0 15.0 15.0 15.0 0.9 0.0 0.1 0.1 0.0 0.1 0.7 0.1 2.2 15.0 15.0 15.0 9.8 14.4 0.7 0.4 5.3 15.0 15.0 15.0 15.0 15.0 15.0 15.0